Weather History for KJFZ - January, 2014

Change the Weather History Date:

Saturday, January 11, 2014

  Actual Average (KBLF) Record (KBLF)
Temperature  
Mean Temperature 52 °F 34 °F  
Max Temperature 62 °F 42 °F 60 °F (2005)
Min Temperature 40 °F 26 °F -11 °F (1982)
Degree Days  
Heating Degree Days 14 31  
Month to date heating degree days 341  
Since 1 July heating degree days 2106  
Cooling Degree Days 0 0  
Month to date cooling degree days 0  
Year to date cooling degree days 0  
Growing Degree Days 2 (Base 50)    
Moisture  
Dew Point 47 °F    
Average Humidity 77    
Maximum Humidity 91    
Minimum Humidity 63    
Precipitation  
Precipitation 0.44 in 0.10 in 0.80 in (1991)
Month to date precipitation 1.04  
Year to date precipitation 1.04  
Snow  
Snow 0.00 in - - ()
Month to date snowfall  
Since 1 July snowfall  
Snow Depth -    
Sea Level Pressure  
Sea Level Pressure 29.71 in    
Wind  
Wind Speed 10 mph (SW)    
Max Wind Speed 22 mph    
Max Gust Speed 30 mph    
Visibility 10 miles    
Events Rain , Thunderstorm    
T = Trace of Precipitation, MM = Missing Value Source: NWS Daily Summary

Daily Weather History Graph

Daily Weather History Graph

Search for Another Location

Airport or City:

Trip Planner

Search our weather history database for the weather conditions in past years. The results will help you decide how hot, cold, wet, or windy it might be!

Date:

Astronomy

Jan. 11, 2014 Rise Set
Actual Time 7:40 AM EST 5:30 PM EST
Civil Twilight 7:12 AM EST 5:58 PM EST
Nautical Twilight 6:39 AM EST 6:30 PM EST
Astronomical Twilight 6:08 AM EST 7:02 PM EST
Moon 2:12 PM EST (1/11) 3:45 AM EST (1/11)
Length of Visible Light 10h 46m
Length of Day
9h 49m
Waxing Gibbous, 83% of the Moon is Illuminated
Jan 11
Waxing Gibbous
Jan 15
Full
Jan 24
Last Quarter
Jan 30
New
Feb 6
First Quarter

Hourly Weather History & Observations

Time (EST) Temp. Windchill Dew Point Humidity Pressure Visibility Wind Dir Wind Speed Gust Speed Precip Events Conditions
12:15 AM 57.9 °F - 51.4 °F 79% 29.94 in 10.0 mi SE 6.9 mph - N/A   Mostly Cloudy
12:35 AM 58.3 °F - 51.4 °F 78% 29.93 in 10.0 mi SE 6.9 mph - N/A   Scattered Clouds
12:55 AM 57.4 °F - 51.1 °F 79% 29.92 in 10.0 mi SSE 5.8 mph - N/A Rain Rain
1:15 AM 57.2 °F - 51.4 °F 81% 29.91 in 10.0 mi SSE 4.6 mph 16.1 mph N/A   Overcast
1:35 AM 58.1 °F - 52.7 °F 82% 29.91 in 10.0 mi SE 5.8 mph - N/A Rain Light Rain
1:55 AM 57.6 °F - 52.9 °F 84% 29.90 in 10.0 mi SSE 8.1 mph - N/A   Overcast
2:15 AM 57.2 °F - 52.5 °F 84% 29.88 in 10.0 mi SE 6.9 mph - N/A   Mostly Cloudy
2:35 AM 58.1 °F - 52.7 °F 82% 29.87 in 10.0 mi SSE 9.2 mph - N/A   Scattered Clouds
2:55 AM 57.9 °F - 52.5 °F 82% 29.86 in 10.0 mi SE 9.2 mph - N/A   Mostly Cloudy
3:15 AM 58.5 °F - 52.5 °F 81% 29.85 in 10.0 mi SSE 5.8 mph - N/A   Overcast
3:35 AM 58.1 °F - 52.7 °F 82% 29.84 in 10.0 mi SSE 6.9 mph - N/A   Mostly Cloudy
3:55 AM 57.6 °F - 52.2 °F 82% 29.81 in 10.0 mi SE 5.8 mph - N/A   Scattered Clouds
4:15 AM 57.0 °F - 51.8 °F 83% 29.79 in 10.0 mi SSE 6.9 mph - N/A   Clear
4:35 AM 58.8 °F - 52.2 °F 79% 29.78 in 10.0 mi SE 5.8 mph - N/A   Clear
4:55 AM 58.5 °F - 52.0 °F 79% 29.77 in 10.0 mi SSE 5.8 mph - N/A   Clear
5:15 AM 59.7 °F - 52.0 °F 76% 29.76 in 10.0 mi SE 4.6 mph - N/A   Scattered Clouds
5:35 AM 59.2 °F - 51.8 °F 77% 29.75 in 10.0 mi SSE 8.1 mph - N/A   Scattered Clouds
5:55 AM 60.6 °F - 52.7 °F 75% 29.76 in 10.0 mi South 13.8 mph 18.4 mph N/A Rain Light Rain
6:15 AM 59.9 °F - 53.1 °F 78% 29.73 in 10.0 mi South 9.2 mph 17.3 mph N/A Rain Light Rain
6:35 AM 60.8 °F - 52.7 °F 75% 29.70 in 10.0 mi SSE 10.4 mph 24.2 mph N/A   Overcast
6:55 AM 60.8 °F - 52.3 °F 74% 29.69 in 10.0 mi South 15.0 mph 24.2 mph N/A   Scattered Clouds
7:15 AM 61.5 °F - 52.3 °F 72% 29.66 in 10.0 mi SSE 12.7 mph 23.0 mph N/A   Mostly Cloudy
7:35 AM 61.9 °F - 52.2 °F 70% 29.64 in 10.0 mi South 10.4 mph 21.9 mph N/A   Scattered Clouds
7:55 AM 61.7 °F - 52.0 °F 70% 29.63 in 10.0 mi South 12.7 mph 24.2 mph N/A   Clear
8:15 AM 62.4 °F - 51.6 °F 68% 29.64 in 10.0 mi South 12.7 mph 26.5 mph N/A   Scattered Clouds
8:35 AM 61.2 °F - 52.7 °F 74% 29.67 in 10.0 mi SSW 11.5 mph 16.1 mph 0.01 in Rain Light Rain
8:55 AM 59.0 °F - 54.5 °F 85% 29.70 in 3.0 mi WSW 15.0 mph 19.6 mph 0.11 in Rain Heavy Rain
9:15 AM 57.2 °F - 54.5 °F 91% 29.72 in 10.0 mi West 10.4 mph 21.9 mph 0.01 in Rain Rain
9:35 AM 56.8 °F - 54.0 °F 90% 29.74 in 10.0 mi SSW 15.0 mph 18.4 mph 0.04 in Rain Rain
9:55 AM 56.3 °F - 52.9 °F 88% 29.75 in 4.0 mi SW 12.7 mph 26.5 mph 0.11 in Rain Heavy Rain
10:15 AM 55.9 °F - 52.7 °F 89% 29.75 in 5.0 mi SW 10.4 mph 23.0 mph 0.04 in Rain Rain
10:35 AM 55.6 °F - 52.3 °F 89% 29.75 in 5.0 mi SW 13.8 mph 17.3 mph 0.10 in Rain Heavy Rain
10:55 AM 55.0 °F - 51.8 °F 89% 29.72 in 4.0 mi South 9.2 mph 17.3 mph 0.18 in Rain Heavy Rain
11:15 AM 54.9 °F - 50.5 °F 85% 29.71 in 10.0 mi SSW 8.1 mph 16.1 mph 0.02 in Rain , Thunderstorm Rain
11:35 AM 54.5 °F - 50.4 °F 86% 29.67 in 10.0 mi South 8.1 mph - 0.04 in Rain Light Rain
11:55 AM 54.7 °F - 50.0 °F 84% 29.66 in 10.0 mi SW 6.9 mph - 0.04 in Rain Light Rain
12:15 PM 55.4 °F - 49.6 °F 81% 29.65 in 10.0 mi SW 12.7 mph 18.4 mph N/A   Overcast
12:35 PM 55.8 °F - 49.8 °F 80% 29.62 in 10.0 mi SW 10.4 mph 19.6 mph N/A   Overcast
12:55 PM 55.4 °F - 50.5 °F 84% 29.61 in 10.0 mi WSW 17.3 mph 21.9 mph N/A   Overcast
1:15 PM 55.4 °F - 50.0 °F 82% 29.62 in 10.0 mi WSW 18.4 mph 26.5 mph N/A   Overcast
1:35 PM 54.7 °F - 49.8 °F 84% 29.59 in 10.0 mi SW 11.5 mph 17.3 mph N/A   Mostly Cloudy
1:55 PM 54.5 °F - 48.7 °F 81% 29.58 in 10.0 mi SW 8.1 mph 24.2 mph N/A   Scattered Clouds
2:15 PM 54.3 °F - 48.2 °F 80% 29.59 in 10.0 mi SW 16.1 mph 25.3 mph N/A   Scattered Clouds
2:35 PM 54.0 °F - 46.8 °F 77% 29.59 in 10.0 mi WSW 15.0 mph 29.9 mph N/A   Scattered Clouds
2:55 PM 53.8 °F - 46.6 °F 77% 29.58 in 10.0 mi WSW 16.1 mph 25.3 mph N/A   Clear
3:15 PM 53.6 °F - 46.6 °F 77% 29.58 in 10.0 mi SW 8.1 mph 19.6 mph N/A   Scattered Clouds
3:35 PM 53.6 °F - 46.6 °F 77% 29.58 in 10.0 mi SW 12.7 mph 20.7 mph N/A   Mostly Cloudy
3:55 PM 53.6 °F - 45.7 °F 75% 29.58 in 10.0 mi SW 16.1 mph 23.0 mph N/A   Mostly Cloudy
4:15 PM 53.6 °F - 45.5 °F 74% 29.58 in 10.0 mi WSW 11.5 mph 23.0 mph N/A   Overcast
4:35 PM 53.2 °F - 45.3 °F 74% 29.58 in 10.0 mi SW 6.9 mph 23.0 mph N/A   Overcast
4:55 PM 53.1 °F - 45.0 °F 74% 29.57 in 10.0 mi SW 15.0 mph 26.5 mph N/A   Overcast
5:15 PM 52.5 °F - 43.7 °F 72% 29.58 in 10.0 mi WSW 12.7 mph 16.1 mph N/A   Scattered Clouds
5:35 PM 51.8 °F - 43.3 °F 73% 29.58 in 10.0 mi WSW 11.5 mph 21.9 mph N/A   Mostly Cloudy
5:55 PM 51.8 °F - 43.0 °F 72% 29.59 in 10.0 mi WSW 13.8 mph 23.0 mph N/A   Mostly Cloudy
6:15 PM 51.1 °F - 42.8 °F 73% 29.59 in 10.0 mi WSW 13.8 mph 20.7 mph N/A   Scattered Clouds
6:35 PM 50.4 °F - 43.2 °F 76% 29.60 in 10.0 mi WSW 9.2 mph - N/A   Scattered Clouds
6:55 PM 50.2 °F - 43.0 °F 76% 29.61 in 10.0 mi West 13.8 mph 19.6 mph N/A   Mostly Cloudy
7:15 PM 50.2 °F - 40.3 °F 69% 29.63 in 10.0 mi NW 11.5 mph 23.0 mph N/A   Mostly Cloudy
7:35 PM 49.1 °F - 38.7 °F 67% 29.65 in 10.0 mi WNW 10.4 mph 21.9 mph N/A   Overcast
7:55 PM 48.2 °F - 36.9 °F 65% 29.66 in 10.0 mi WNW 11.5 mph 21.9 mph N/A   Overcast
8:15 PM 47.7 °F - 36.0 °F 64% 29.68 in 10.0 mi WNW 9.2 mph - N/A   Overcast
8:35 PM 47.3 °F - 35.8 °F 64% 29.70 in 10.0 mi WNW 6.9 mph - N/A   Overcast
8:55 PM 46.8 °F - 34.9 °F 63% 29.70 in 10.0 mi West 21.9 mph 28.8 mph N/A   Overcast
9:15 PM 46.4 °F 41.9 °F 34.9 °F 64% 29.72 in 10.0 mi WNW 9.2 mph 18.4 mph N/A   Overcast
9:35 PM 45.3 °F 38.1 °F 33.3 °F 63% 29.72 in 10.0 mi WNW 17.3 mph 27.6 mph N/A   Mostly Cloudy
9:55 PM 44.2 °F 37.6 °F 33.1 °F 65% 29.73 in 10.0 mi West 13.8 mph 25.3 mph N/A   Scattered Clouds
10:15 PM 43.9 °F 36.5 °F 33.3 °F 66% 29.75 in 10.0 mi West 16.1 mph 21.9 mph N/A   Mostly Cloudy
10:35 PM 43.7 °F 38.1 °F 33.3 °F 67% 29.76 in 10.0 mi WNW 10.4 mph 23.0 mph N/A   Overcast
10:55 PM 42.8 °F 35.8 °F 33.4 °F 70% 29.77 in 10.0 mi West 13.8 mph 19.6 mph N/A   Overcast
11:15 PM 41.9 °F 36.9 °F 32.0 °F 68% 29.78 in 10.0 mi WNW 8.1 mph 26.5 mph N/A   Overcast
11:35 PM 41.0 °F 32.2 °F 31.3 °F 68% 29.79 in 10.0 mi West 18.4 mph 26.5 mph N/A   Overcast
11:55 PM 40.3 °F 33.0 °F 30.4 °F 68% 29.80 in 10.0 mi WNW 12.7 mph 25.3 mph N/A   Overcast